Valentine, NE

2:52 PM CST on December 11, 2019 (GMT -0600)
Miller Field

Weather History for KVTN - October, 2019

Change the Weather History Date:

Tuesday, October 29, 2019

  Actual Average Record
Temperature  
Mean Temperature 19 °F 43 °F  
Max Temperature 28 °F 57 °F 87 °F (1950)
Min Temperature 10 °F 29 °F 5 °F (1991)
Degree Days  
Heating Degree Days 46 22  
Month to date heating degree days 624 473  
Since 1 July heating degree days 677 658  
Cooling Degree Days 0 0  
Month to date cooling degree days 0 1  
Year to date cooling degree days 930 818  
Moisture  
Dew Point 11 °F    
Average Humidity 68    
Maximum Humidity 83    
Minimum Humidity 46    
Precipitation  
Precipitation T in 0.02 in 1.07 in (1927)
Month to date precipitation 1.17 1.19  
Year to date precipitation 28.07 18.94  
Snow  
Snow T in 0.10 in 4.90 in (1923)
Month to date snowfall 1.9 1.3  
Since 1 July snowfall 1.9 2.0  
Since 1 September snowfall 1.9 2.0  
Snow Depth T in    
Sea Level Pressure  
Sea Level Pressure 30.36 in    
Wind  
Wind Speed 10 mph ()    
Max Wind Speed 22 mph    
Max Gust Speed 33 mph    
Visibility 9.5 miles    
Events Snow    
T = Trace of Precipitation, MM = Missing Value Source: Averaged Metar Reports

Daily Weather History Graph

Daily Weather History Graph

Search for Another Location

Airport or City:

Astronomy

Oct. 29, 2019 Rise Set
Actual Time 8:12 AM CDT 6:38 PM CDT
Civil Twilight 7:43 AM CDT 7:07 PM CDT
Nautical Twilight 7:09 AM CDT 7:41 PM CDT
Astronomical Twilight 6:37 AM CDT 8:14 PM CDT
Moon 9:49 AM CDT (10/29) 8:02 PM CDT (10/29)
Length of Visible Light 11h 24m
Length of Day
10h 26m
Waxing Crescent, 3% of the Moon is Illuminated
Oct 29
Waxing Crescent
Nov 4
First Quarter
Nov 12
Full
Nov 19
Last Quarter
Nov 26
New

Hourly Weather History & Observations

Time (CDT) Temp. Windchill Dew Point Humidity Pressure Visibility Wind Dir Wind Speed Gust Speed Precip Events Conditions
12:52 AM 17.1 °F 8.7 °F 10.0 °F 74% 30.19 in 10.0 mi WNW 5.8 mph - N/A   Clear
1:52 AM 16.0 °F 7.4 °F 10.0 °F 77% 30.19 in 10.0 mi WSW 5.8 mph - N/A   Scattered Clouds
2:52 AM 21.9 °F 14.5 °F 15.1 °F 75% 30.21 in 10.0 mi WNW 5.8 mph - N/A   Overcast
3:52 AM 26.1 °F 12.3 °F 19.0 °F 75% 30.22 in 10.0 mi North 19.6 mph 28.8 mph N/A   Overcast
3:59 AM 26.1 °F 13.1 °F 19.0 °F 75% 30.15 in 10.0 mi North 17.3 mph 28.8 mph N/A   Overcast
4:19 AM 24.1 °F 11.5 °F 18.0 °F 77% 30.16 in 10.0 mi North 15.0 mph 26.5 mph N/A   Overcast
4:48 AM 24.8 °F 14.0 °F 17.6 °F 74% 30.18 in 10.0 mi NNW 11.5 mph 25.3 mph N/A   Overcast
4:52 AM 24.1 °F 13.7 °F 17.1 °F 75% 30.27 in 9.0 mi NNW 10.4 mph - 0.00 in Snow Light Snow
5:04 AM 24.1 °F 12.0 °F 18.0 °F 77% 30.19 in 6.0 mi NNW 13.8 mph - 0.00 in Snow Light Snow
5:25 AM 23.0 °F 10.1 °F 16.0 °F 74% 30.19 in 5.0 mi North 15.0 mph 24.2 mph 0.00 in Snow Light Snow
5:52 AM 21.9 °F 9.8 °F 15.1 °F 75% 30.30 in 8.0 mi NNW 12.7 mph 26.5 mph 0.00 in Snow Light Snow
6:22 AM 21.9 °F 7.8 °F 16.0 °F 78% 30.22 in 7.0 mi NNW 17.3 mph 26.5 mph 0.00 in Snow Light Snow
6:52 AM 21.0 °F 9.3 °F 14.0 °F 74% 30.34 in 10.0 mi NNW 11.5 mph 28.8 mph 0.00 in   Overcast
7:52 AM 19.9 °F 6.7 °F 12.0 °F 71% 30.38 in 10.0 mi NNW 13.8 mph 23.0 mph N/A   Overcast
8:52 AM 19.0 °F 4.5 °F 10.0 °F 68% 30.41 in 10.0 mi NNW 16.1 mph 23.0 mph N/A   Overcast
9:52 AM 19.9 °F 6.7 °F 8.1 °F 60% 30.46 in 10.0 mi North 13.8 mph 23.0 mph N/A   Overcast
10:52 AM 21.0 °F 6.6 °F 8.1 °F 57% 30.46 in 10.0 mi NNW 17.3 mph 24.2 mph N/A   Overcast
11:52 AM 24.1 °F 10.6 °F 9.0 °F 53% 30.44 in 10.0 mi NNW 17.3 mph 25.3 mph N/A   Overcast
12:52 PM 24.1 °F 11.5 °F 8.1 °F 51% 30.47 in 10.0 mi North 15.0 mph - N/A   Overcast
1:52 PM 25.0 °F 14.8 °F 9.0 °F 51% 30.45 in 10.0 mi North 10.4 mph - N/A   Overcast
2:52 PM 25.0 °F 11.3 °F 9.0 °F 51% 30.43 in 10.0 mi North 18.4 mph 26.5 mph N/A   Overcast
3:52 PM 26.1 °F 13.1 °F 10.0 °F 51% 30.42 in 10.0 mi North 17.3 mph - N/A   Overcast
4:52 PM 26.1 °F 15.6 °F 9.0 °F 49% 30.43 in 10.0 mi NNW 11.5 mph 21.9 mph N/A   Partly Cloudy
5:52 PM 24.1 °F 13.7 °F 8.1 °F 51% 30.44 in 10.0 mi NNW 10.4 mph - N/A   Clear
6:52 PM 19.9 °F 12.1 °F 8.1 °F 60% 30.46 in 10.0 mi NW 5.8 mph - N/A   Clear
7:52 PM 12.9 °F 5.2 °F 6.1 °F 74% 30.50 in 10.0 mi WNW 4.6 mph - N/A   Partly Cloudy
8:52 PM 12.9 °F 5.2 °F 7.0 °F 77% 30.51 in 10.0 mi West 4.6 mph - N/A   Clear
9:52 PM 10.9 °F 2.9 °F 6.1 °F 81% 30.52 in 10.0 mi West 4.6 mph - N/A   Clear
10:52 PM 10.9 °F 0.2 °F 5.0 °F 77% 30.55 in 10.0 mi WNW 6.9 mph - N/A   Clear
11:52 PM 12.9 °F 2.6 °F 6.1 °F 74% 30.53 in 10.0 mi WNW 6.9 mph - N/A   Clear